Time,TemperatureF,DewpointF,PressureIn,WindDirection,WindDirectionDegrees,WindSpeedMPH,WindSpeedGustMPH,Humidity,HourlyPrecipIn,Conditions,Clouds,dailyrainin,SolarRadiationWatts/m^2,SoftwareType,DateUTC
2013-02-24 00:01:00,28.8,26.2,30.44,SSE,157,0.0,0.0,90,0.00,CLR,OVC,0.00,0.0,WeatherDisplay:10.37,2013-02-24 08:01:00,
2013-02-24 00:06:00,28.7,26.1,30.44,SSE,157,0.0,0.0,90,0.00,CLR,OVC,0.00,0.0,WeatherDisplay:10.37,2013-02-24 08:06:00,
2013-02-24 00:11:00,28.5,25.9,30.44,SSE,157,0.0,0.0,90,0.00,CLR,OVC,0.00,0.0,WeatherDisplay:10.37,2013-02-24 08:11:00,
2013-02-24 00:16:00,28.5,25.9,30.44,SSE,157,1.1,0.0,90,0.00,CLR,OVC,0.00,0.0,WeatherDisplay:10.37,2013-02-24 08:16:00,
2013-02-24 00:21:00,28.5,25.9,30.44,SSE,155,2.3,2.3,90,0.00,CLR,OVC,0.00,0.0,WeatherDisplay:10.37,2013-02-24 08:21:00,
2013-02-24 00:26:00,28.4,25.8,30.44,SSE,155,0.0,0.0,90,0.00,CLR,OVC,0.00,0.0,WeatherDisplay:10.37,2013-02-24 08:26:00,
2013-02-24 00:31:00,28.4,25.8,30.45,SSE,155,0.0,0.2,90,0.00,CLR,OVC,0.00,0.0,WeatherDisplay:10.37,2013-02-24 08:31:00,
2013-02-24 00:36:00,28.4,25.8,30.45,SSE,155,0.0,0.0,90,0.00,CLR,OVC,0.00,0.0,WeatherDisplay:10.37,2013-02-24 08:36:00,
2013-02-24 00:41:00,28.4,25.8,30.45,SSE,155,1.1,1.1,90,0.00,CLR,OVC,0.00,0.0,WeatherDisplay:10.37,2013-02-24 08:41:00,
2013-02-24 00:46:00,28.2,25.6,30.45,SSE,155,1.1,1.1,90,0.00,CLR,OVC,0.00,0.0,WeatherDisplay:10.37,2013-02-24 08:46:00,
2013-02-24 00:51:00,28.1,25.5,30.45,SSE,155,1.1,1.1,90,0.00,CLR,OVC,0.00,0.0,WeatherDisplay:10.37,2013-02-24 08:51:00,
2013-02-24 00:56:00,28.1,25.5,30.45,SSE,148,3.5,3.5,90,0.00,CLR,OVC,0.00,0.0,WeatherDisplay:10.37,2013-02-24 08:56:00,
2013-02-24 01:01:00,28.1,25.5,30.44,SE,142,2.3,2.3,90,0.00,BKN,OVC,0.00,0.0,WeatherDisplay:10.37,2013-02-24 09:01:00,
2013-02-24 01:06:00,28.1,25.5,30.44,SE,142,1.1,1.1,90,0.00,BKN,OVC,0.00,0.0,WeatherDisplay:10.37,2013-02-24 09:06:00,
2013-02-24 01:11:00,28.1,25.5,30.45,SE,142,0.0,0.0,90,0.00,BKN,OVC,0.00,0.0,WeatherDisplay:10.37,2013-02-24 09:11:00,
2013-02-24 01:16:00,28.1,25.5,30.45,SE,142,1.1,1.1,90,0.00,BKN,OVC,0.00,0.0,WeatherDisplay:10.37,2013-02-24 09:16:00,
2013-02-24 01:21:00,28.1,25.5,30.45,SE,142,1.1,0.0,90,0.00,BKN,OVC,0.00,0.0,WeatherDisplay:10.37,2013-02-24 09:21:00,
2013-02-24 01:26:00,28.1,25.8,30.45,SE,142,1.1,1.1,91,0.00,BKN,OVC,0.00,0.0,WeatherDisplay:10.37,2013-02-24 09:26:00,
2013-02-24 01:31:00,27.9,25.6,30.45,SE,142,0.0,0.0,91,0.00,BKN,OVC,0.00,0.0,WeatherDisplay:10.37,2013-02-24 09:31:00,
2013-02-24 01:36:00,27.9,25.6,30.45,SE,142,0.0,0.0,91,0.00,BKN,OVC,0.00,0.0,WeatherDisplay:10.37,2013-02-24 09:36:00,
2013-02-24 01:41:00,27.9,25.6,30.45,SE,142,1.1,0.0,91,0.00,BKN,OVC,0.00,0.0,WeatherDisplay:10.37,2013-02-24 09:41:00,
2013-02-24 01:47:00,27.8,25.5,30.45,SE,142,0.0,0.0,91,0.00,BKN,OVC,0.00,0.0,WeatherDisplay:10.37,2013-02-24 09:47:00,
2013-02-24 01:52:00,27.8,25.2,30.45,SE,142,0.0,0.0,90,0.00,BKN,OVC,0.00,0.0,WeatherDisplay:10.37,2013-02-24 09:52:00,
2013-02-24 01:57:00,27.6,25.1,30.45,SE,142,0.0,0.0,90,0.00,BKN,OVC,0.00,0.0,WeatherDisplay:10.37,2013-02-24 09:57:00,
2013-02-24 02:02:00,27.6,25.3,30.45,SE,142,0.0,0.0,91,0.00,BKN,OVC,0.00,0.0,WeatherDisplay:10.37,2013-02-24 10:02:00,
2013-02-24 02:07:00,27.6,25.1,30.45,SE,142,0.0,0.0,90,0.00,BKN,OVC,0.00,0.0,WeatherDisplay:10.37,2013-02-24 10:07:00,
2013-02-24 02:12:00,27.5,25.0,30.45,SE,142,1.1,1.1,90,0.00,BKN,OVC,0.00,0.0,WeatherDisplay:10.37,2013-02-24 10:12:00,
2013-02-24 02:17:00,27.5,25.0,30.45,SE,142,2.3,2.3,90,0.00,BKN,OVC,0.00,0.0,WeatherDisplay:10.37,2013-02-24 10:17:00,
2013-02-24 02:22:00,27.5,25.2,30.45,SE,142,0.0,0.0,91,0.00,BKN,OVC,0.00,0.0,WeatherDisplay:10.37,2013-02-24 10:22:00,
2013-02-24 02:27:00,27.3,25.0,30.45,SE,142,0.0,0.0,91,0.00,BKN,OVC,0.00,0.0,WeatherDisplay:10.37,2013-02-24 10:27:00,
2013-02-24 02:32:00,27.3,25.0,30.45,SE,142,0.0,0.0,91,0.00,BKN,OVC,0.00,0.0,WeatherDisplay:10.37,2013-02-24 10:32:00,
2013-02-24 02:37:00,27.3,25.0,30.45,SE,142,1.1,1.1,91,0.00,BKN,OVC,0.00,0.0,WeatherDisplay:10.37,2013-02-24 10:37:00,
2013-02-24 02:42:00,27.2,24.9,30.45,SE,142,0.0,0.0,91,0.00,BKN,OVC,0.00,0.0,WeatherDisplay:10.37,2013-02-24 10:42:00,
2013-02-24 02:47:00,27.2,24.9,30.44,SE,142,0.0,0.0,91,0.00,BKN,OVC,0.00,0.0,WeatherDisplay:10.37,2013-02-24 10:47:00,
2013-02-24 02:52:00,27.0,24.5,30.44,SE,142,0.0,0.0,90,0.00,BKN,OVC,0.00,0.0,WeatherDisplay:10.37,2013-02-24 10:52:00,
2013-02-24 02:57:00,27.0,24.5,30.44,SE,142,1.1,1.1,90,0.00,BKN,OVC,0.00,0.0,WeatherDisplay:10.37,2013-02-24 10:57:00,
2013-02-24 03:02:00,26.9,24.4,30.44,SE,142,0.0,0.0,90,0.00,CLR,OVC,0.00,0.0,WeatherDisplay:10.37,2013-02-24 11:02:00,
2013-02-24 03:07:00,26.7,24.2,30.43,SE,142,0.0,0.0,90,0.00,CLR,OVC,0.00,0.0,WeatherDisplay:10.37,2013-02-24 11:07:00,
2013-02-24 03:12:00,26.7,24.2,30.44,SE,142,0.0,0.0,90,0.00,CLR,OVC,0.00,0.0,WeatherDisplay:10.37,2013-02-24 11:12:00,
2013-02-24 03:17:00,26.6,24.1,30.44,SE,142,0.0,0.0,90,0.00,CLR,OVC,0.00,0.0,WeatherDisplay:10.37,2013-02-24 11:17:00,
2013-02-24 03:22:00,26.6,24.1,30.43,SE,142,1.1,1.1,90,0.00,CLR,OVC,0.00,0.0,WeatherDisplay:10.37,2013-02-24 11:22:00,
2013-02-24 03:27:00,26.4,23.9,30.44,SE,142,0.0,0.0,90,0.00,CLR,OVC,0.00,0.0,WeatherDisplay:10.37,2013-02-24 11:27:00,
2013-02-24 03:32:00,26.4,23.9,30.45,SE,142,0.0,0.0,90,0.00,CLR,OVC,0.00,0.0,WeatherDisplay:10.37,2013-02-24 11:32:00,
2013-02-24 03:37:00,26.3,23.8,30.45,SE,142,0.0,0.0,90,0.00,CLR,OVC,0.00,0.0,WeatherDisplay:10.37,2013-02-24 11:37:00,
2013-02-24 03:42:00,26.1,23.6,30.45,SE,142,1.1,1.1,90,0.00,CLR,OVC,0.00,0.0,WeatherDisplay:10.37,2013-02-24 11:42:00,
2013-02-24 03:47:00,26.0,23.5,30.45,SE,142,0.0,0.0,90,0.00,CLR,OVC,0.00,0.0,WeatherDisplay:10.37,2013-02-24 11:47:00,
2013-02-24 03:52:00,25.8,23.3,30.45,SE,142,0.0,0.0,90,0.00,CLR,OVC,0.00,0.0,WeatherDisplay:10.37,2013-02-24 11:52:00,
2013-02-24 03:57:00,25.7,23.2,30.45,SE,142,1.1,1.1,90,0.00,CLR,OVC,0.00,0.0,WeatherDisplay:10.37,2013-02-24 11:57:00,
2013-02-24 04:02:00,25.7,23.2,30.45,SE,142,2.0,2.0,90,0.00,CLR,OVC,0.00,0.0,WeatherDisplay:10.37,2013-02-24 12:02:00,
2013-02-24 04:07:00,25.6,23.1,30.45,SE,142,1.1,1.1,90,0.00,CLR,OVC,0.00,0.0,WeatherDisplay:10.37,2013-02-24 12:07:00,
2013-02-24 04:12:00,25.6,23.1,30.45,SE,142,0.0,0.0,90,0.00,CLR,OVC,0.00,0.0,WeatherDisplay:10.37,2013-02-24 12:12:00,
2013-02-24 04:17:00,25.6,23.1,30.45,SE,142,0.0,0.0,90,0.00,CLR,OVC,0.00,0.0,WeatherDisplay:10.37,2013-02-24 12:17:00,
2013-02-24 04:22:00,25.4,22.9,30.45,SE,142,1.1,1.1,90,0.00,CLR,OVC,0.00,0.0,WeatherDisplay:10.37,2013-02-24 12:22:00,
2013-02-24 04:27:00,25.4,22.9,30.46,SE,142,1.1,1.1,90,0.00,CLR,OVC,0.00,0.0,WeatherDisplay:10.37,2013-02-24 12:27:00,
2013-02-24 04:32:00,25.4,22.9,30.46,SE,142,1.1,1.1,90,0.00,CLR,OVC,0.00,0.0,WeatherDisplay:10.37,2013-02-24 12:32:00,
2013-02-24 04:37:00,25.3,22.8,30.46,SE,142,1.1,1.1,90,0.00,CLR,OVC,0.00,0.0,WeatherDisplay:10.37,2013-02-24 12:37:00,
2013-02-24 04:42:00,25.1,22.6,30.46,SE,142,1.1,1.1,90,0.00,CLR,OVC,0.00,0.0,WeatherDisplay:10.37,2013-02-24 12:42:00,
2013-02-24 04:47:00,25.1,22.8,30.46,SE,142,1.1,1.1,91,0.00,CLR,OVC,0.00,0.0,WeatherDisplay:10.37,2013-02-24 12:47:00,
2013-02-24 04:52:00,25.0,22.7,30.46,SE,142,1.1,0.0,91,0.00,CLR,OVC,0.00,0.0,WeatherDisplay:10.37,2013-02-24 12:52:00,
2013-02-24 04:57:00,25.0,22.7,30.46,SE,142,0.0,0.0,91,0.00,CLR,OVC,0.00,0.0,WeatherDisplay:10.37,2013-02-24 12:57:00,
2013-02-24 05:02:00,25.0,22.7,30.46,SE,142,0.0,0.1,91,0.00,CLR,OVC,0.00,0.0,WeatherDisplay:10.37,2013-02-24 13:02:00,
2013-02-24 05:07:00,25.0,22.7,30.46,SE,142,0.0,0.0,91,0.00,CLR,OVC,0.00,0.0,WeatherDisplay:10.37,2013-02-24 13:07:00,
2013-02-24 05:12:00,24.8,22.5,30.46,SE,142,0.0,0.0,91,0.00,CLR,OVC,0.00,0.0,WeatherDisplay:10.37,2013-02-24 13:12:00,
2013-02-24 05:17:00,24.8,22.5,30.46,SE,142,1.1,1.1,91,0.00,CLR,OVC,0.00,0.0,WeatherDisplay:10.37,2013-02-24 13:17:00,
2013-02-24 05:22:00,24.8,22.5,30.46,SE,142,1.1,0.0,91,0.00,CLR,OVC,0.00,0.0,WeatherDisplay:10.37,2013-02-24 13:22:00,
2013-02-24 05:28:00,24.8,22.5,30.46,SE,142,1.1,1.1,91,0.00,CLR,OVC,0.00,0.0,WeatherDisplay:10.37,2013-02-24 13:28:00,
2013-02-24 05:33:00,24.8,22.5,30.46,SE,142,1.1,1.1,91,0.00,CLR,OVC,0.00,0.0,WeatherDisplay:10.37,2013-02-24 13:33:00,
2013-02-24 05:38:00,24.8,22.5,30.46,SE,140,0.0,0.0,91,0.00,CLR,OVC,0.00,0.0,WeatherDisplay:10.37,2013-02-24 13:38:00,
2013-02-24 05:43:00,24.8,22.5,30.46,SE,140,0.0,0.0,91,0.00,CLR,OVC,0.00,0.0,WeatherDisplay:10.37,2013-02-24 13:43:00,
2013-02-24 05:48:00,24.8,22.5,30.46,SE,140,0.0,0.0,91,0.00,CLR,OVC,0.00,0.0,WeatherDisplay:10.37,2013-02-24 13:48:00,
2013-02-24 05:53:00,25.0,22.7,30.46,SE,140,0.0,0.0,91,0.00,CLR,OVC,0.00,0.0,WeatherDisplay:10.37,2013-02-24 13:53:00,
2013-02-24 05:58:00,24.8,22.5,30.46,SE,140,0.0,0.0,91,0.00,CLR,OVC,0.00,0.0,WeatherDisplay:10.37,2013-02-24 13:58:00,
2013-02-24 06:03:00,24.8,22.5,30.46,SE,140,1.1,1.1,91,0.00,CLR,OVC,0.00,0.0,WeatherDisplay:10.37,2013-02-24 14:03:00,
2013-02-24 06:08:00,24.8,22.5,30.46,SE,140,0.0,0.0,91,0.00,CLR,OVC,0.00,0.0,WeatherDisplay:10.37,2013-02-24 14:08:00,
2013-02-24 06:13:00,24.8,22.5,30.47,SE,140,0.0,0.0,91,0.00,CLR,OVC,0.00,0.0,WeatherDisplay:10.37,2013-02-24 14:13:00,
2013-02-24 06:18:00,24.7,22.4,30.48,SE,140,0.0,0.0,91,0.00,CLR,OVC,0.00,0.0,WeatherDisplay:10.37,2013-02-24 14:18:00,
2013-02-24 06:23:00,24.7,22.4,30.48,SE,140,0.0,0.0,91,0.00,SCT,OVC,0.00,0.0,WeatherDisplay:10.37,2013-02-24 14:23:00,
2013-02-24 06:28:00,24.5,22.2,30.48,SE,140,0.0,0.0,91,0.00,SCT,OVC,0.00,0.0,WeatherDisplay:10.37,2013-02-24 14:28:00,
2013-02-24 06:33:00,24.4,22.2,30.48,SE,140,0.0,0.0,91,0.00,SCT,OVC,0.00,0.0,WeatherDisplay:10.37,2013-02-24 14:33:00,
2013-02-24 06:38:00,24.4,22.2,30.48,SE,140,0.0,0.0,91,0.00,SCT,OVC,0.00,0.0,WeatherDisplay:10.37,2013-02-24 14:38:00,
2013-02-24 06:43:00,24.2,22.0,30.48,SE,140,0.0,0.0,91,0.00,SCT,OVC,0.00,0.0,WeatherDisplay:10.37,2013-02-24 14:43:00,
2013-02-24 06:48:00,24.2,22.0,30.48,SE,140,0.0,0.0,91,0.00,SCT,OVC,0.00,0.0,WeatherDisplay:10.37,2013-02-24 14:48:00,
2013-02-24 06:53:00,24.1,21.9,30.48,SE,140,0.0,0.0,91,0.00,SCT,OVC,0.00,5.0,WeatherDisplay:10.37,2013-02-24 14:53:00,
2013-02-24 06:58:00,24.1,21.9,30.48,SE,140,0.0,0.0,91,0.00,SCT,OVC,0.00,7.0,WeatherDisplay:10.37,2013-02-24 14:58:00,
2013-02-24 07:03:00,23.9,21.7,30.48,SE,140,1.1,1.1,91,0.00,SCT,OVC,0.00,11.0,WeatherDisplay:10.37,2013-02-24 15:03:00,
2013-02-24 07:08:00,23.9,21.7,30.48,SE,140,0.0,0.0,91,0.00,SCT,OVC,0.00,14.0,WeatherDisplay:10.37,2013-02-24 15:08:00,
2013-02-24 07:13:00,23.9,21.7,30.48,SE,140,0.0,0.0,91,0.00,BKN,OVC,0.00,21.0,WeatherDisplay:10.37,2013-02-24 15:13:00,
2013-02-24 07:18:00,23.9,21.7,30.48,SE,140,0.0,0.0,91,0.00,BKN,OVC,0.00,25.0,WeatherDisplay:10.37,2013-02-24 15:18:00,
2013-02-24 07:23:00,23.9,21.7,30.49,SE,140,0.0,0.0,91,0.00,BKN,OVC,0.00,30.0,WeatherDisplay:10.37,2013-02-24 15:23:00,
2013-02-24 07:28:00,23.9,21.7,30.49,SE,140,0.0,0.0,91,0.00,BKN,OVC,0.00,37.0,WeatherDisplay:10.37,2013-02-24 15:28:00,
2013-02-24 07:33:00,23.9,21.7,30.49,SE,140,0.0,0.0,91,0.00,BKN,OVC,0.00,56.0,WeatherDisplay:10.37,2013-02-24 15:33:00,
2013-02-24 07:38:00,24.2,22.2,30.49,SE,140,0.0,0.0,92,0.00,BKN,OVC,0.00,74.0,WeatherDisplay:10.37,2013-02-24 15:38:00,
2013-02-24 07:43:00,24.5,22.5,30.49,SE,140,0.0,0.0,92,0.00,BKN,OVC,0.00,70.0,WeatherDisplay:10.37,2013-02-24 15:43:00,
2013-02-24 07:48:00,24.7,22.7,30.49,SE,140,1.1,0.0,92,0.00,BKN,OVC,0.00,67.0,WeatherDisplay:10.37,2013-02-24 15:48:00,
2013-02-24 07:53:00,25.4,23.7,30.49,SE,140,1.1,1.1,93,0.00,BKN,OVC,0.00,60.0,WeatherDisplay:10.37,2013-02-24 15:53:00,
2013-02-24 07:58:00,25.8,24.1,30.48,SE,140,0.0,0.0,93,0.00,BKN,OVC,0.00,53.0,WeatherDisplay:10.37,2013-02-24 15:58:00,
2013-02-24 08:03:00,26.3,24.6,30.48,SE,140,1.1,1.1,93,0.00,OVC,,0.00,76.0,WeatherDisplay:10.37,2013-02-24 16:03:00,
2013-02-24 08:08:00,26.6,24.8,30.48,SE,140,2.3,2.3,93,0.00,OVC,,0.00,67.0,WeatherDisplay:10.37,2013-02-24 16:08:00,
2013-02-24 08:13:00,26.9,25.1,30.48,SE,140,2.0,2.0,93,0.00,OVC,,0.00,74.0,WeatherDisplay:10.37,2013-02-24 16:13:00,
2013-02-24 08:18:00,27.2,25.4,30.48,SE,140,1.1,1.1,93,0.00,OVC,,0.00,84.0,WeatherDisplay:10.37,2013-02-24 16:18:00,
2013-02-24 08:23:00,27.3,25.5,30.48,SE,140,1.1,0.0,93,0.00,OVC,,0.00,81.0,WeatherDisplay:10.37,2013-02-24 16:23:00,
2013-02-24 08:28:00,27.5,25.7,30.48,SE,140,0.0,0.0,93,0.00,OVC,,0.00,90.0,WeatherDisplay:10.37,2013-02-24 16:28:00,
2013-02-24 08:33:00,27.8,26.0,30.48,SE,140,0.0,0.0,93,0.00,OVC,,0.00,102.0,WeatherDisplay:10.37,2013-02-24 16:33:00,
2013-02-24 08:38:00,27.9,26.1,30.48,SE,140,1.1,0.0,93,0.00,OVC,,0.00,104.0,WeatherDisplay:10.37,2013-02-24 16:38:00,
2013-02-24 08:43:00,28.4,26.9,30.48,SE,140,1.1,1.1,94,0.00,OVC,,0.00,109.0,WeatherDisplay:10.37,2013-02-24 16:43:00,
2013-02-24 08:48:00,28.8,27.3,30.47,SE,140,1.1,1.1,94,0.00,OVC,,0.00,114.0,WeatherDisplay:10.37,2013-02-24 16:48:00,
2013-02-24 08:53:00,30.0,28.5,30.47,SE,140,1.1,0.0,94,0.00,OVC,,0.00,130.0,WeatherDisplay:10.37,2013-02-24 16:53:00,
2013-02-24 08:58:00,30.6,29.1,30.47,SE,140,1.1,1.1,94,0.00,OVC,,0.00,137.0,WeatherDisplay:10.37,2013-02-24 16:58:00,
2013-02-24 09:03:00,30.6,29.1,30.47,SE,139,2.3,2.3,94,0.00,OVC,,0.00,269.0,WeatherDisplay:10.37,2013-02-24 17:03:00,
2013-02-24 09:08:00,30.9,29.1,30.47,SE,139,1.1,1.1,93,0.00,OVC,,0.00,313.0,WeatherDisplay:10.37,2013-02-24 17:08:00,
2013-02-24 09:13:00,31.3,29.5,30.47,East,95,1.1,1.3,93,0.00,OVC,,0.00,313.0,WeatherDisplay:10.37,2013-02-24 17:13:00,
2013-02-24 09:18:00,31.9,30.1,30.46,NE,43,2.3,2.3,93,0.00,OVC,,0.00,322.0,WeatherDisplay:10.37,2013-02-24 17:18:00,
2013-02-24 09:23:00,32.1,30.0,30.46,NNW,333,3.5,3.5,92,0.00,OVC,,0.00,301.0,WeatherDisplay:10.37,2013-02-24 17:23:00,
2013-02-24 09:28:00,32.4,30.3,30.46,NW,308,3.5,3.5,92,0.00,OVC,,0.00,283.0,WeatherDisplay:10.37,2013-02-24 17:28:00,
2013-02-24 09:33:00,32.2,29.6,30.46,WNW,301,1.1,1.1,90,0.00,OVC,,0.00,287.0,WeatherDisplay:10.37,2013-02-24 17:33:00,
2013-02-24 09:38:00,32.4,29.8,30.46,NW,321,2.3,2.3,90,0.00,OVC,,0.00,325.0,WeatherDisplay:10.37,2013-02-24 17:38:00,
2013-02-24 09:43:00,32.9,30.3,30.46,WNW,290,3.5,3.5,90,0.00,OVC,,0.00,341.0,WeatherDisplay:10.37,2013-02-24 17:43:00,
2013-02-24 09:48:00,33.5,30.9,30.45,NNW,347,2.3,2.3,90,0.00,OVC,,0.00,346.0,WeatherDisplay:10.37,2013-02-24 17:48:00,
2013-02-24 09:53:00,33.5,30.0,30.45,NNW,337,3.5,3.5,87,0.00,OVC,,0.00,388.0,WeatherDisplay:10.37,2013-02-24 17:53:00,
2013-02-24 09:58:00,33.4,30.2,30.45,North,350,2.3,2.3,88,0.00,OVC,,0.00,388.0,WeatherDisplay:10.37,2013-02-24 17:58:00,
2013-02-24 10:03:00,33.7,30.8,30.45,North,359,3.5,3.5,89,0.00,BKN,OVC,0.00,415.0,WeatherDisplay:10.37,2013-02-24 18:03:00,
2013-02-24 10:08:00,34.3,30.8,30.44,NNW,345,2.3,2.3,87,0.00,BKN,OVC,0.00,473.0,WeatherDisplay:10.37,2013-02-24 18:08:00,
2013-02-24 10:13:00,34.6,31.1,30.44,NNW,348,3.5,3.5,87,0.00,BKN,OVC,0.00,545.0,WeatherDisplay:10.37,2013-02-24 18:13:00,
2013-02-24 10:18:00,35.5,31.4,30.44,NNW,339,3.5,3.5,85,0.00,BKN,OVC,0.00,334.0,WeatherDisplay:10.37,2013-02-24 18:18:00,
2013-02-24 10:23:00,35.9,31.8,30.43,North,358,3.5,3.5,85,0.00,BKN,OVC,0.00,482.0,WeatherDisplay:10.37,2013-02-24 18:23:00,
2013-02-24 10:28:00,35.9,30.9,30.43,North,355,2.3,2.3,82,0.00,BKN,OVC,0.00,552.0,WeatherDisplay:10.37,2013-02-24 18:28:00,
2013-02-24 10:34:00,36.6,31.9,30.43,NNW,339,4.6,4.6,83,0.00,BKN,OVC,0.00,561.0,WeatherDisplay:10.37,2013-02-24 18:34:00,
2013-02-24 10:39:00,37.0,31.7,30.43,NNW,340,3.5,3.5,81,0.00,BKN,OVC,0.00,555.0,WeatherDisplay:10.37,2013-02-24 18:39:00,
2013-02-24 10:44:00,37.5,32.2,30.43,NNE,20,3.5,3.5,81,0.00,SCT,OVC,0.00,580.0,WeatherDisplay:10.37,2013-02-24 18:44:00,
2013-02-24 10:49:00,38.2,31.9,30.43,NW,310,3.5,3.5,78,0.00,SCT,OVC,0.00,592.0,WeatherDisplay:10.37,2013-02-24 18:49:00,
2013-02-24 10:54:00,38.3,32.4,30.43,WNW,284,3.5,3.5,79,0.00,SCT,OVC,0.00,478.0,WeatherDisplay:10.37,2013-02-24 18:54:00,
2013-02-24 10:59:00,38.6,32.3,30.42,NNW,333,4.6,4.6,78,0.00,SCT,OVC,0.00,580.0,WeatherDisplay:10.37,2013-02-24 18:59:00,
2013-02-24 11:04:00,38.0,30.8,30.42,North,351,3.5,3.5,75,0.00,FEW,OVC,0.00,582.0,WeatherDisplay:10.37,2013-02-24 19:04:00,
2013-02-24 11:09:00,39.1,31.8,30.42,NW,314,2.3,2.3,75,0.00,FEW,OVC,0.00,598.0,WeatherDisplay:10.37,2013-02-24 19:09:00,
2013-02-24 11:14:00,39.9,33.6,30.42,North,359,3.5,3.5,78,0.00,FEW,OVC,0.00,603.0,WeatherDisplay:10.37,2013-02-24 19:14:00,
2013-02-24 11:19:00,40.6,32.3,30.41,NNE,15,3.5,3.5,72,0.00,FEW,OVC,0.00,589.0,WeatherDisplay:10.37,2013-02-24 19:19:00,
2013-02-24 11:24:00,39.9,32.6,30.42,WNW,300,3.5,3.5,75,0.00,FEW,OVC,0.00,619.0,WeatherDisplay:10.37,2013-02-24 19:24:00,
2013-02-24 11:29:00,40.5,31.8,30.41,North,10,3.5,3.5,71,0.00,FEW,OVC,0.00,580.0,WeatherDisplay:10.37,2013-02-24 19:29:00,
2013-02-24 11:34:00,41.5,33.5,30.40,NNE,24,3.0,3.0,73,0.00,FEW,OVC,0.00,601.0,WeatherDisplay:10.37,2013-02-24 19:34:00,
2013-02-24 11:39:00,40.5,31.1,30.40,NE,41,2.3,2.3,69,0.00,FEW,OVC,0.00,589.0,WeatherDisplay:10.37,2013-02-24 19:39:00,
2013-02-24 11:44:00,41.3,33.0,30.40,NNW,339,2.3,2.3,72,0.00,FEW,OVC,0.00,645.0,WeatherDisplay:10.37,2013-02-24 19:44:00,
2013-02-24 11:49:00,41.8,31.6,30.40,NNE,12,2.3,2.3,67,0.00,FEW,OVC,0.00,643.0,WeatherDisplay:10.37,2013-02-24 19:49:00,
2013-02-24 11:54:00,42.9,33.1,30.39,North,0,3.5,3.5,68,0.00,FEW,OVC,0.00,598.0,WeatherDisplay:10.37,2013-02-24 19:54:00,
2013-02-24 11:59:00,42.6,33.5,30.39,NW,318,3.5,3.5,70,0.00,FEW,OVC,0.00,577.0,WeatherDisplay:10.37,2013-02-24 19:59:00,
2013-02-24 12:04:00,43.1,33.3,30.38,North,0,5.8,5.8,68,0.00,CLR,OVC,0.00,594.0,WeatherDisplay:10.37,2013-02-24 20:04:00,
2013-02-24 12:09:00,43.2,32.6,30.38,North,358,2.3,2.3,66,0.00,CLR,OVC,0.00,642.0,WeatherDisplay:10.37,2013-02-24 20:09:00,
2013-02-24 12:14:00,42.5,31.2,30.38,NW,313,3.5,3.5,64,0.00,CLR,OVC,0.00,654.0,WeatherDisplay:10.37,2013-02-24 20:14:00,
2013-02-24 12:19:00,43.5,32.5,30.38,NNE,19,5.8,5.8,65,0.00,CLR,OVC,0.00,643.0,WeatherDisplay:10.37,2013-02-24 20:19:00,
2013-02-24 12:24:00,42.8,31.5,30.38,NW,312,3.5,3.5,64,0.00,CLR,OVC,0.00,663.0,WeatherDisplay:10.37,2013-02-24 20:24:00,
2013-02-24 12:29:00,43.9,34.7,30.37,North,359,4.6,4.6,70,0.00,CLR,OVC,0.00,652.0,WeatherDisplay:10.37,2013-02-24 20:29:00,
2013-02-24 12:34:00,44.3,32.5,30.37,North,354,3.5,3.5,63,0.00,CLR,OVC,0.00,650.0,WeatherDisplay:10.37,2013-02-24 20:34:00,
2013-02-24 12:39:00,44.2,32.4,30.37,North,353,5.8,5.8,63,0.00,CLR,OVC,0.00,635.0,WeatherDisplay:10.37,2013-02-24 20:39:00,
2013-02-24 12:44:00,44.3,33.7,30.37,NNW,341,3.5,3.5,66,0.00,CLR,OVC,0.00,656.0,WeatherDisplay:10.37,2013-02-24 20:44:00,
2013-02-24 12:49:00,44.9,33.8,30.36,WNW,294,5.8,5.8,65,0.00,CLR,OVC,0.00,650.0,WeatherDisplay:10.37,2013-02-24 20:49:00,
2013-02-24 12:54:00,45.7,34.2,30.36,North,354,5.8,5.8,64,0.00,CLR,OVC,0.00,649.0,WeatherDisplay:10.37,2013-02-24 20:54:00,
2013-02-24 12:59:00,45.2,32.5,30.36,NW,311,3.5,3.5,61,0.00,CLR,OVC,0.00,647.0,WeatherDisplay:10.37,2013-02-24 20:59:00,
2013-02-24 13:04:00,46.1,35.0,30.36,North,357,2.3,2.3,65,0.00,FEW,OVC,0.00,645.0,WeatherDisplay:10.37,2013-02-24 21:04:00,
2013-02-24 13:09:00,46.7,32.7,30.36,NNE,19,4.0,4.0,58,0.00,FEW,OVC,0.00,642.0,WeatherDisplay:10.37,2013-02-24 21:09:00,
2013-02-24 13:14:00,44.9,31.0,30.36,NNE,24,2.3,2.3,58,0.00,FEW,OVC,0.00,638.0,WeatherDisplay:10.37,2013-02-24 21:14:00,
2013-02-24 13:19:00,45.8,33.1,30.35,North,350,3.5,3.5,61,0.00,FEW,OVC,0.00,635.0,WeatherDisplay:10.37,2013-02-24 21:19:00,
2013-02-24 13:24:00,47.3,33.7,30.35,North,0,4.6,4.6,59,0.00,FEW,OVC,0.00,629.0,WeatherDisplay:10.37,2013-02-24 21:24:00,
2013-02-24 13:29:00,46.8,33.6,30.34,WNW,292,3.5,3.5,60,0.00,FEW,OVC,0.00,624.0,WeatherDisplay:10.37,2013-02-24 21:29:00,
2013-02-24 13:34:00,47.0,33.4,30.34,WNW,283,5.0,5.0,59,0.00,FEW,OVC,0.00,617.0,WeatherDisplay:10.37,2013-02-24 21:34:00,
2013-02-24 13:39:00,48.6,36.2,30.34,NNE,17,6.9,6.9,62,0.00,FEW,OVC,0.00,608.0,WeatherDisplay:10.37,2013-02-24 21:39:00,
2013-02-24 13:44:00,49.1,33.2,30.34,North,1,3.5,3.5,54,0.00,FEW,OVC,0.00,606.0,WeatherDisplay:10.37,2013-02-24 21:44:00,
2013-02-24 13:49:00,47.7,33.2,30.34,East,91,3.5,3.5,57,0.00,FEW,OVC,0.00,601.0,WeatherDisplay:10.37,2013-02-24 21:49:00,
2013-02-24 13:54:00,48.0,33.9,30.34,North,358,4.6,4.6,58,0.00,FEW,OVC,0.00,592.0,WeatherDisplay:10.37,2013-02-24 21:54:00,
2013-02-24 13:59:00,47.6,32.7,30.34,SW,230,2.3,2.3,56,0.00,FEW,OVC,0.00,582.0,WeatherDisplay:10.37,2013-02-24 21:59:00,
2013-02-24 14:04:00,48.8,33.8,30.34,NW,309,4.6,4.6,56,0.00,CLR,OVC,0.00,561.0,WeatherDisplay:10.37,2013-02-24 22:04:00,
2013-02-24 14:09:00,49.1,33.2,30.33,NNW,342,3.5,3.5,54,0.00,CLR,OVC,0.00,555.0,WeatherDisplay:10.37,2013-02-24 22:09:00,
2013-02-24 14:14:00,48.3,32.9,30.33,NNW,337,3.5,3.5,55,0.00,CLR,OVC,0.00,543.0,WeatherDisplay:10.37,2013-02-24 22:14:00,
2013-02-24 14:19:00,47.6,31.8,30.33,WSW,255,3.0,3.0,54,0.00,CLR,OVC,0.00,540.0,WeatherDisplay:10.37,2013-02-24 22:19:00,
2013-02-24 14:24:00,47.4,32.9,30.33,NE,40,4.0,4.0,57,0.00,CLR,OVC,0.00,515.0,WeatherDisplay:10.37,2013-02-24 22:24:00,
2013-02-24 14:29:00,47.4,32.5,30.33,NE,55,3.5,3.5,56,0.00,CLR,OVC,0.00,508.0,WeatherDisplay:10.37,2013-02-24 22:29:00,
2013-02-24 14:34:00,48.0,33.5,30.32,WNW,303,4.0,4.0,57,0.00,CLR,OVC,0.00,496.0,WeatherDisplay:10.37,2013-02-24 22:34:00,
2013-02-24 14:39:00,49.2,32.8,30.32,NNW,340,4.6,4.6,53,0.00,CLR,OVC,0.00,499.0,WeatherDisplay:10.37,2013-02-24 22:39:00,
2013-02-24 14:44:00,49.5,34.0,30.32,NNW,333,3.5,3.5,55,0.00,CLR,OVC,0.00,506.0,WeatherDisplay:10.37,2013-02-24 22:44:00,
2013-02-24 14:49:00,49.9,34.8,30.31,NW,308,3.5,3.5,56,0.00,CLR,OVC,0.00,462.0,WeatherDisplay:10.37,2013-02-24 22:49:00,
2013-02-24 14:54:00,49.2,32.3,30.31,NE,40,4.6,4.6,52,0.00,CLR,OVC,0.00,475.0,WeatherDisplay:10.37,2013-02-24 22:54:00,
2013-02-24 14:59:00,49.4,34.8,30.31,North,358,4.6,4.6,57,0.00,CLR,OVC,0.00,410.0,WeatherDisplay:10.37,2013-02-24 22:59:00,
2013-02-24 15:04:00,50.1,35.0,30.31,WNW,296,3.5,3.5,56,0.00,CLR,OVC,0.00,443.0,WeatherDisplay:10.37,2013-02-24 23:04:00,
2013-02-24 15:09:00,49.8,33.8,30.31,NW,306,3.5,3.5,54,0.00,CLR,OVC,0.00,445.0,WeatherDisplay:10.37,2013-02-24 23:09:00,
2013-02-24 15:14:00,50.1,34.1,30.31,NNW,336,3.5,3.5,54,0.00,CLR,OVC,0.00,431.0,WeatherDisplay:10.37,2013-02-24 23:14:00,
2013-02-24 15:19:00,50.2,34.2,30.31,NW,304,3.5,3.5,54,0.00,CLR,OVC,0.00,422.0,WeatherDisplay:10.37,2013-02-24 23:19:00,
2013-02-24 15:24:00,50.1,34.5,30.31,NW,306,3.5,3.5,55,0.00,CLR,OVC,0.00,408.0,WeatherDisplay:10.37,2013-02-24 23:24:00,
2013-02-24 15:29:00,50.2,33.7,30.31,WSW,243,3.5,3.5,53,0.00,CLR,OVC,0.00,390.0,WeatherDisplay:10.37,2013-02-24 23:29:00,
2013-02-24 15:34:00,49.5,33.5,30.31,SSE,158,3.5,3.5,54,0.00,CLR,OVC,0.00,380.0,WeatherDisplay:10.37,2013-02-24 23:34:00,
2013-02-24 15:39:00,50.1,35.0,30.30,NW,308,3.5,3.5,56,0.00,CLR,OVC,0.00,353.0,WeatherDisplay:10.37,2013-02-24 23:39:00,
2013-02-24 15:44:00,50.8,34.7,30.30,NW,326,1.1,1.1,54,0.00,CLR,OVC,0.00,353.0,WeatherDisplay:10.37,2013-02-24 23:44:00,
2013-02-24 15:49:00,50.1,33.1,30.29,NW,326,1.1,1.1,52,0.00,CLR,OVC,0.00,322.0,WeatherDisplay:10.37,2013-02-24 23:49:00,
2013-02-24 15:55:00,49.8,33.8,30.29,West,261,3.5,3.5,54,0.00,CLR,OVC,0.00,318.0,WeatherDisplay:10.37,2013-02-24 23:55:00,
2013-02-24 16:00:00,50.8,34.7,30.29,NNW,330,3.5,3.5,54,0.00,CLR,OVC,0.00,295.0,WeatherDisplay:10.37,2013-02-25 00:00:00,
2013-02-24 16:05:00,50.2,33.7,30.29,NNW,331,2.3,0.0,53,0.00,CLR,OVC,0.00,274.0,WeatherDisplay:10.37,2013-02-25 00:05:00,
2013-02-24 16:10:00,50.2,34.6,30.29,WNW,301,3.5,3.5,55,0.00,CLR,OVC,0.00,279.0,WeatherDisplay:10.37,2013-02-25 00:10:00,
2013-02-24 16:15:00,50.5,34.5,30.29,NW,319,3.5,3.5,54,0.00,CLR,OVC,0.00,269.0,WeatherDisplay:10.37,2013-02-25 00:15:00,
2013-02-24 16:20:00,50.7,34.2,30.29,WNW,302,2.3,2.4,53,0.00,CLR,OVC,0.00,250.0,WeatherDisplay:10.37,2013-02-25 00:20:00,
2013-02-24 16:25:00,50.8,35.2,30.28,WNW,302,3.5,3.5,55,0.00,CLR,OVC,0.00,237.0,WeatherDisplay:10.37,2013-02-25 00:25:00,
2013-02-24 16:30:00,50.7,33.7,30.28,WNW,293,2.3,2.3,52,0.00,CLR,OVC,0.00,179.0,WeatherDisplay:10.37,2013-02-25 00:30:00,
2013-02-24 16:35:00,50.2,33.2,30.28,WNW,293,3.5,3.5,52,0.00,CLR,OVC,0.00,155.0,WeatherDisplay:10.37,2013-02-25 00:35:00,
2013-02-24 16:40:00,50.2,33.7,30.28,West,281,3.5,3.5,53,0.00,CLR,OVC,0.00,186.0,WeatherDisplay:10.37,2013-02-25 00:40:00,
2013-02-24 16:45:00,49.9,33.0,30.28,West,281,2.3,2.3,52,0.00,CLR,OVC,0.00,142.0,WeatherDisplay:10.37,2013-02-25 00:45:00,
2013-02-24 16:50:00,49.9,33.0,30.28,West,272,2.3,2.3,52,0.00,CLR,OVC,0.00,116.0,WeatherDisplay:10.37,2013-02-25 00:50:00,
2013-02-24 16:55:00,49.5,32.6,30.28,West,271,2.3,2.3,52,0.00,CLR,OVC,0.00,86.0,WeatherDisplay:10.37,2013-02-25 00:55:00,
2013-02-24 17:00:00,49.1,31.7,30.27,West,271,2.3,2.3,51,0.00,CLR,OVC,0.00,70.0,WeatherDisplay:10.37,2013-02-25 01:00:00,
2013-02-24 17:05:00,48.8,31.9,30.27,West,271,2.3,2.3,52,0.00,CLR,OVC,0.00,58.0,WeatherDisplay:10.37,2013-02-25 01:05:00,
2013-02-24 17:10:00,48.5,32.6,30.27,West,271,2.3,2.3,54,0.00,CLR,OVC,0.00,51.0,WeatherDisplay:10.37,2013-02-25 01:10:00,
2013-02-24 17:15:00,48.0,33.5,30.27,SW,233,2.3,2.3,57,0.00,CLR,OVC,0.00,39.0,WeatherDisplay:10.37,2013-02-25 01:15:00,
2013-02-24 17:20:00,47.4,33.4,30.27,SW,233,2.3,2.3,58,0.00,CLR,OVC,0.00,32.0,WeatherDisplay:10.37,2013-02-25 01:20:00,
2013-02-24 17:25:00,47.0,33.4,30.27,SW,233,2.3,2.3,59,0.00,CLR,OVC,0.00,28.0,WeatherDisplay:10.37,2013-02-25 01:25:00,
2013-02-24 17:30:00,46.1,33.0,30.27,SW,233,1.1,1.1,60,0.00,CLR,OVC,0.00,23.0,WeatherDisplay:10.37,2013-02-25 01:30:00,
2013-02-24 17:35:00,44.8,33.4,30.27,SW,233,3.5,3.5,64,0.00,CLR,OVC,0.00,18.0,WeatherDisplay:10.37,2013-02-25 01:35:00,
2013-02-24 17:40:00,44.1,33.5,30.27,SW,230,3.5,3.5,66,0.00,CLR,OVC,0.00,14.0,WeatherDisplay:10.37,2013-02-25 01:40:00,
2013-02-24 17:45:00,43.3,33.4,30.27,SW,215,3.5,3.5,68,0.00,CLR,OVC,0.00,11.0,WeatherDisplay:10.37,2013-02-25 01:45:00,
2013-02-24 17:50:00,43.1,33.6,30.27,SSW,208,3.5,3.5,69,0.00,CLR,OVC,0.00,7.0,WeatherDisplay:10.37,2013-02-25 01:50:00,
2013-02-24 17:55:00,42.5,33.4,30.27,SSW,208,1.1,1.1,70,0.00,CLR,OVC,0.00,5.0,WeatherDisplay:10.37,2013-02-25 01:55:00,
2013-02-24 18:00:00,41.9,31.7,30.27,SSW,208,2.3,2.3,67,0.00,CLR,OVC,0.00,0.0,WeatherDisplay:10.37,2013-02-25 02:00:00,
2013-02-24 18:05:00,41.3,33.0,30.27,SSW,208,1.1,1.1,72,0.00,CLR,OVC,0.00,0.0,WeatherDisplay:10.37,2013-02-25 02:05:00,
2013-02-24 18:10:00,40.6,32.6,30.27,SSW,208,3.5,3.5,73,0.00,CLR,OVC,0.00,0.0,WeatherDisplay:10.37,2013-02-25 02:10:00,
2013-02-24 18:15:00,39.9,32.6,30.28,SSW,207,3.5,3.5,75,0.00,CLR,OVC,0.00,0.0,WeatherDisplay:10.37,2013-02-25 02:15:00,
2013-02-24 18:20:00,39.3,32.7,30.28,SSW,201,3.5,3.5,77,0.00,CLR,OVC,0.00,0.0,WeatherDisplay:10.37,2013-02-25 02:20:00,
2013-02-24 18:25:00,39.3,32.7,30.28,South,179,3.5,3.5,77,0.00,CLR,OVC,0.00,0.0,WeatherDisplay:10.37,2013-02-25 02:25:00,
2013-02-24 18:30:00,39.3,32.7,30.28,South,178,2.3,2.3,77,0.00,CLR,OVC,0.00,0.0,WeatherDisplay:10.37,2013-02-25 02:30:00,
2013-02-24 18:35:00,39.2,32.6,30.27,South,173,3.5,3.5,77,0.00,CLR,OVC,0.00,0.0,WeatherDisplay:10.37,2013-02-25 02:35:00,
2013-02-24 18:40:00,39.6,32.7,30.27,South,178,4.0,4.0,76,0.00,CLR,OVC,0.00,0.0,WeatherDisplay:10.37,2013-02-25 02:40:00,
2013-02-24 18:45:00,39.3,32.4,30.27,South,177,3.5,3.5,76,0.00,CLR,OVC,0.00,0.0,WeatherDisplay:10.37,2013-02-25 02:45:00,
2013-02-24 18:50:00,39.2,32.6,30.27,SSE,153,2.3,2.3,77,0.00,CLR,OVC,0.00,0.0,WeatherDisplay:10.37,2013-02-25 02:50:00,
2013-02-24 18:55:00,39.6,32.7,30.27,ESE,120,1.1,1.1,76,0.00,CLR,OVC,0.00,0.0,WeatherDisplay:10.37,2013-02-25 02:55:00,
2013-02-24 19:00:00,39.9,32.9,30.27,ESE,119,2.3,2.3,76,0.00,CLR,OVC,0.00,0.0,WeatherDisplay:10.37,2013-02-25 03:00:00,
2013-02-24 19:05:00,39.6,32.7,30.27,ESE,119,0.0,0.0,76,0.00,CLR,OVC,0.00,0.0,WeatherDisplay:10.37,2013-02-25 03:05:00,
2013-02-24 19:10:00,38.9,32.3,30.27,ESE,119,0.0,0.0,77,0.00,CLR,OVC,0.00,0.0,WeatherDisplay:10.37,2013-02-25 03:10:00,
2013-02-24 19:15:00,38.0,32.1,30.27,ESE,119,1.1,0.0,79,0.00,CLR,OVC,0.00,0.0,WeatherDisplay:10.37,2013-02-25 03:15:00,
2013-02-24 19:20:00,37.5,31.9,30.26,ESE,119,0.0,0.0,80,0.00,CLR,OVC,0.00,0.0,WeatherDisplay:10.37,2013-02-25 03:20:00,
2013-02-24 19:25:00,36.9,31.3,30.26,ESE,120,0.0,0.0,80,0.00,CLR,OVC,0.00,0.0,WeatherDisplay:10.37,2013-02-25 03:25:00,
2013-02-24 19:30:00,36.8,31.8,30.27,ESE,123,2.3,2.3,82,0.00,CLR,OVC,0.00,0.0,WeatherDisplay:10.37,2013-02-25 03:30:00,
2013-02-24 19:35:00,36.3,31.3,30.27,ESE,123,1.1,0.0,82,0.00,CLR,OVC,0.00,0.0,WeatherDisplay:10.37,2013-02-25 03:35:00,
2013-02-24 19:40:00,36.5,31.8,30.26,ESE,123,0.0,0.0,83,0.00,CLR,OVC,0.00,0.0,WeatherDisplay:10.37,2013-02-25 03:40:00,
2013-02-24 19:45:00,35.9,30.9,30.27,ESE,123,0.0,0.0,82,0.00,CLR,OVC,0.00,0.0,WeatherDisplay:10.37,2013-02-25 03:45:00,
2013-02-24 19:50:00,35.3,30.7,30.26,ESE,123,0.0,0.0,83,0.00,CLR,OVC,0.00,0.0,WeatherDisplay:10.37,2013-02-25 03:50:00,
2013-02-24 19:55:00,35.2,30.9,30.27,ESE,123,2.3,2.3,84,0.00,CLR,OVC,0.00,0.0,WeatherDisplay:10.37,2013-02-25 03:55:00,
2013-02-24 20:01:00,35.3,31.2,30.27,ESE,123,0.0,0.0,85,0.00,CLR,OVC,0.00,0.0,WeatherDisplay:10.37,2013-02-25 04:01:00,
2013-02-24 20:06:00,34.7,30.4,30.26,SE,124,2.3,2.3,84,0.00,CLR,OVC,0.00,0.0,WeatherDisplay:10.37,2013-02-25 04:06:00,
2013-02-24 20:11:00,34.3,30.3,30.27,SE,136,1.1,1.1,85,0.00,CLR,OVC,0.00,0.0,WeatherDisplay:10.37,2013-02-25 04:11:00,
2013-02-24 20:16:00,34.0,30.3,30.26,SE,136,1.1,1.1,86,0.00,CLR,OVC,0.00,0.0,WeatherDisplay:10.37,2013-02-25 04:16:00,
2013-02-24 20:21:00,33.7,30.2,30.26,SE,136,1.1,1.1,87,0.00,CLR,OVC,0.00,0.0,WeatherDisplay:10.37,2013-02-25 04:21:00,
2013-02-24 20:26:00,34.0,30.8,30.26,SE,136,1.1,0.0,88,0.00,CLR,OVC,0.00,0.0,WeatherDisplay:10.37,2013-02-25 04:26:00,
2013-02-24 20:31:00,34.1,30.6,30.26,SE,136,1.1,1.1,87,0.00,CLR,OVC,0.00,0.0,WeatherDisplay:10.37,2013-02-25 04:31:00,
2013-02-24 20:36:00,33.8,30.3,30.26,SE,136,1.1,1.1,87,0.00,CLR,OVC,0.00,0.0,WeatherDisplay:10.37,2013-02-25 04:36:00,
2013-02-24 20:41:00,34.0,30.8,30.25,SE,136,0.0,0.0,88,0.00,CLR,OVC,0.00,0.0,WeatherDisplay:10.37,2013-02-25 04:41:00,
2013-02-24 20:46:00,33.8,30.6,30.25,SE,136,0.0,0.0,88,0.00,CLR,OVC,0.00,0.0,WeatherDisplay:10.37,2013-02-25 04:46:00,
2013-02-24 20:51:00,33.8,30.6,30.25,SE,136,0.0,0.0,88,0.00,CLR,OVC,0.00,0.0,WeatherDisplay:10.37,2013-02-25 04:51:00,
2013-02-24 20:56:00,33.5,30.3,30.25,SE,136,0.0,0.0,88,0.00,CLR,OVC,0.00,0.0,WeatherDisplay:10.37,2013-02-25 04:56:00,
2013-02-24 21:00:00,33.4,30.2,30.26,SE,136,0.0,0.0,88,0.00,CLR,OVC,0.00,0.0,WeatherDisplay:10.37,2013-02-25 05:00:00,
2013-02-24 21:05:00,33.2,30.3,30.25,SE,136,0.0,0.0,89,0.00,CLR,OVC,0.00,0.0,WeatherDisplay:10.37,2013-02-25 05:05:00,
2013-02-24 21:10:00,33.4,30.5,30.25,SE,136,0.0,0.0,89,0.00,CLR,OVC,0.00,0.0,WeatherDisplay:10.37,2013-02-25 05:10:00,
2013-02-24 21:15:00,33.4,30.5,30.24,SE,136,1.1,1.1,89,0.00,CLR,OVC,0.00,0.0,WeatherDisplay:10.37,2013-02-25 05:15:00,
2013-02-24 21:20:00,33.1,30.2,30.24,SE,136,1.1,1.1,89,0.00,CLR,OVC,0.00,0.0,WeatherDisplay:10.37,2013-02-25 05:20:00,
2013-02-24 21:25:00,33.1,30.2,30.25,SE,136,0.0,0.0,89,0.00,CLR,OVC,0.00,0.0,WeatherDisplay:10.37,2013-02-25 05:25:00,
2013-02-24 21:30:00,33.1,30.2,30.25,SE,136,0.0,0.0,89,0.00,CLR,OVC,0.00,0.0,WeatherDisplay:10.37,2013-02-25 05:30:00,
2013-02-24 21:35:00,33.4,30.8,30.26,SE,136,0.0,0.0,90,0.00,CLR,OVC,0.00,0.0,WeatherDisplay:10.37,2013-02-25 05:35:00,
2013-02-24 21:40:00,33.4,30.5,30.25,SE,136,0.0,0.0,89,0.00,CLR,OVC,0.00,0.0,WeatherDisplay:10.37,2013-02-25 05:40:00,
2013-02-24 21:45:00,33.4,30.8,30.25,SE,136,1.1,1.1,90,0.00,CLR,OVC,0.00,0.0,WeatherDisplay:10.37,2013-02-25 05:45:00,
2013-02-24 21:50:00,33.2,30.3,30.25,SE,136,1.1,1.1,89,0.00,CLR,OVC,0.00,0.0,WeatherDisplay:10.37,2013-02-25 05:50:00,
2013-02-24 21:55:00,33.1,30.5,30.24,SE,136,1.1,0.0,90,0.00,CLR,OVC,0.00,0.0,WeatherDisplay:10.37,2013-02-25 05:55:00,
2013-02-24 22:00:00,33.4,30.8,30.24,SE,136,0.0,0.0,90,0.00,CLR,OVC,0.00,0.0,WeatherDisplay:10.37,2013-02-25 06:00:00,
2013-02-24 22:05:00,33.4,30.8,30.25,SE,136,1.1,1.1,90,0.00,CLR,OVC,0.00,0.0,WeatherDisplay:10.37,2013-02-25 06:05:00,
2013-02-24 22:10:00,33.5,30.9,30.25,SE,136,0.0,0.1,90,0.00,CLR,OVC,0.00,0.0,WeatherDisplay:10.37,2013-02-25 06:10:00,
2013-02-24 22:15:00,34.0,31.4,30.23,SE,136,1.1,1.1,90,0.00,CLR,OVC,0.00,0.0,WeatherDisplay:10.37,2013-02-25 06:15:00,
2013-02-24 22:20:00,34.3,31.7,30.23,SE,136,2.3,2.3,90,0.00,CLR,OVC,0.00,0.0,WeatherDisplay:10.37,2013-02-25 06:20:00,
2013-02-24 22:25:00,34.3,31.7,30.23,SE,137,2.3,2.3,90,0.00,CLR,OVC,0.00,0.0,WeatherDisplay:10.37,2013-02-25 06:25:00,
2013-02-24 22:30:00,34.4,31.8,30.23,SE,137,1.1,1.1,90,0.00,CLR,OVC,0.00,0.0,WeatherDisplay:10.37,2013-02-25 06:30:00,
2013-02-24 22:35:00,34.6,32.0,30.23,WSW,244,3.5,3.5,90,0.00,CLR,OVC,0.00,0.0,WeatherDisplay:10.37,2013-02-25 06:35:00,
2013-02-24 22:40:00,35.2,32.6,30.23,WSW,244,0.0,0.0,90,0.00,CLR,OVC,0.00,0.0,WeatherDisplay:10.37,2013-02-25 06:40:00,
2013-02-24 22:45:00,35.3,32.4,30.23,WSW,244,1.1,1.1,89,0.00,CLR,OVC,0.00,0.0,WeatherDisplay:10.37,2013-02-25 06:45:00,
2013-02-24 22:50:00,35.3,32.4,30.24,WSW,245,2.3,2.3,89,0.00,CLR,OVC,0.00,0.0,WeatherDisplay:10.37,2013-02-25 06:50:00,
2013-02-24 22:55:00,35.6,32.7,30.24,WSW,246,1.1,1.1,89,0.00,CLR,OVC,0.00,0.0,WeatherDisplay:10.37,2013-02-25 06:55:00,
2013-02-24 23:00:00,35.9,33.0,30.24,WSW,246,1.1,0.0,89,0.00,CLR,OVC,0.00,0.0,WeatherDisplay:10.37,2013-02-25 07:00:00,
2013-02-24 23:05:00,36.2,33.3,30.23,WSW,246,0.0,0.0,89,0.00,BKN,OVC,0.00,0.0,WeatherDisplay:10.37,2013-02-25 07:05:00,
2013-02-24 23:10:00,36.3,33.1,30.23,WSW,246,0.0,0.0,88,0.00,BKN,OVC,0.00,0.0,WeatherDisplay:10.37,2013-02-25 07:10:00,
2013-02-24 23:15:00,36.5,33.3,30.23,WSW,246,0.0,0.0,88,0.00,BKN,OVC,0.00,0.0,WeatherDisplay:10.37,2013-02-25 07:15:00,
2013-02-24 23:20:00,36.5,33.3,30.23,WSW,246,0.0,0.0,88,0.00,BKN,OVC,0.00,0.0,WeatherDisplay:10.37,2013-02-25 07:20:00,
2013-02-24 23:25:00,36.6,33.4,30.23,WSW,246,1.1,0.0,88,0.00,BKN,OVC,0.00,0.0,WeatherDisplay:10.37,2013-02-25 07:25:00,
2013-02-24 23:30:00,36.9,33.7,30.23,WSW,246,1.1,1.1,88,0.00,BKN,OVC,0.00,0.0,WeatherDisplay:10.37,2013-02-25 07:30:00,
2013-02-24 23:35:00,37.0,33.5,30.23,WSW,246,0.0,0.0,87,0.00,BKN,OVC,0.00,0.0,WeatherDisplay:10.37,2013-02-25 07:35:00,
2013-02-24 23:40:00,37.3,33.5,30.24,WSW,246,0.0,0.0,86,0.00,BKN,OVC,0.00,0.0,WeatherDisplay:10.37,2013-02-25 07:40:00,
2013-02-24 23:45:00,37.3,33.5,30.24,WSW,246,1.1,1.1,86,0.00,BKN,OVC,0.00,0.0,WeatherDisplay:10.37,2013-02-25 07:45:00,
2013-02-24 23:50:00,37.3,33.5,30.24,WSW,246,1.1,1.1,86,0.00,BKN,OVC,0.00,0.0,WeatherDisplay:10.37,2013-02-25 07:50:00,
2013-02-24 23:55:00,37.5,33.7,30.24,WSW,246,0.0,0.0,86,0.00,BKN,OVC,0.00,0.0,WeatherDisplay:10.37,2013-02-25 07:55:00,